Regional Weather Roundup
Issued by NWS

Home | Current Version | Previous Version | Text Only | Print | Product List | Glossary Off
Versions: 1 2 3 4 5 6 7 8 9 10 11 12 13 14 15 16 17 18 19 20 21 22 23 24 25 26 27 28 29 30 31 32 33 34 35 36 37 38 39 40 41 42 43 44 45 46 47 48 49 50

710
ASUS43 KMPX 211710
RWRMN
WEATHER ROUNDUP FOR MINNESOTA
NATIONAL WEATHER SERVICE TWIN CITIES/CHANHASSEN MN
1200 PM CDT THU MAY 21 2015


NOTE: "FAIR" INDICATES FEW OR NO CLOUDS BELOW 12,000 FEET WITH NO
SIGNIFICANT WEATHER AND/OR OBSTRUCTIONS TO VISIBILITY. N/A MEANS
CURRENT SKY AND/OR WEATHER CONDITIONS ARE NOT AVAILABLE.

MNZ060>063-068>070-211800-
   Twin Cities Metro

CITY           SKY/WX    TMP DP  RH WIND       PRES   REMARKS
TWIN CITIES    SUNNY     68  39  34 NW12G22   30.02S
ST PAUL        SUNNY     67  42  40 NW12      30.02F
CRYSTAL        SUNNY     69  37  30 NW13G21   30.01S
LAKEVILLE      SUNNY     64  43  45 NW14      30.02F
EDEN PRAIRIE   SUNNY     67  39  35 NW12      30.02F
SOUTH ST PAUL  SUNNY     67  39  35 NW7       30.01S
LAKE ELMO      FAIR      66  45  45 NW8       30.02S
$$
MNZ001>005-007-008-013>017-022>024-027-028-211800-
   Northwest Minnesota

CITY           SKY/WX    TMP DP  RH WIND       PRES   REMARKS
BEMIDJI        SUNNY     60  31  33 N10       30.11R
HALLOCK        SUNNY     63  34  34 N14       30.15S
ROSEAU         SUNNY     61  34  36 NW7       30.13S
WARROAD        SUNNY     55  39  54 E8        30.14R
THIEF RVR FALL SUNNY     61  32  33 N9        30.14S
CROOKSTON      SUNNY     63  34  34 N9        30.15
FOSSTON        SUNNY     61  34  36 N14       30.13S
DETROIT LAKES    N/A    N/A N/A N/A MISG        N/A
MOORHEAD       SUNNY     63  41  45 N10       30.15S
PARK RAPIDS    SUNNY     64  29  26 N13       30.09R
MAHNOMEN       FAIR      61  33  34 N15       30.12S
$$
MNZ006-009>011-018-025>026-211800-
   North Central Minnesota

CITY           SKY/WX    TMP DP  RH WIND       PRES   REMARKS
BAUDETTE       SUNNY     58  32  37 N12G17    30.12R
FLAG ISLAND    SUNNY     54  30  40 N6        30.12S
INTL FALLS     SUNNY     58  32  37 N12       30.08S
WASKISH        SUNNY     61  34  36 NW12      30.11R
BIG FORK       SUNNY     63  28  27 NW8G20    30.08S
LONGVILLE      SUNNY     61  28  29 NW8G18    30.08R
GRAND RAPIDS   SUNNY     61  28  29 NW15      30.06S
CRANE LAKE     SUNNY     57  28  33 NW9       30.08R
ORR            SUNNY     61  25  25 NW9G18    30.04R
COOK           SUNNY     61  30  31 NW6G17    30.05S
WALKER         FAIR      60  31  33 N9G18     30.09S
$$
MNZ012-019>021-037-211800-
   Northeast Minnesota

CITY           SKY/WX    TMP DP  RH WIND       PRES   REMARKS
DULUTH         SUNNY     58  35  42 SE8       30.02R
ELY            SUNNY     57  27  30 NW7G18    30.03S
HIBBING        SUNNY     63  29  27 N16G22    30.04S
EVELETH        SUNNY     59  28  31 N13G20    30.05R
DULUTH HARBOR  SUNNY     50  37  62 N5        30.04S
TWO HARBORS    SUNNY     59  36  41 SE7       30.01R
SILVER BAY     SUNNY     57  30  35 SE7       30.00S
GRAND MARAIS     N/A     49  33  54 W5        30.01R
G MARAIS ARPRT SUNNY     57  25  28 NW9G20    30.01R
$$
MNZ029>031-032-039>041-046>048-054>057-064-211800-
   West Central Minnesota

CITY           SKY/WX    TMP DP  RH WIND       PRES   REMARKS
FERGUS FALLS   SUNNY     63  37  39 N13       30.13S
WHEATON        SUNNY     63  37  39 NW15G22   30.15S
MORRIS         SUNNY     66  36  32 N20       30.11S
ALEXANDRIA     SUNNY     64  36  35 N14G22    30.11R
ELBOW LAKE     FAIR      63  39  41 N13       30.11S
WADENA         SUNNY     63  36  36 N9G21     30.09R
GLENWOOD       SUNNY     64  37  36 N13G20    30.10S
APPLETON       SUNNY     66  34  30 NW14G22   30.12S
BENSON         SUNNY     66  36  32 N15G22    30.11R
ORTONVILLE     SUNNY     64  28  25 N17       30.13S
MADISON        SUNNY     66  34  30 N16       30.13S
WILLMAR        FAIR      66  39  37 NW21      30.10S
$$
MNZ033>034-036-042>043-049>051-058-059-211800-
   Central Minnesota

CITY           SKY/WX    TMP DP  RH WIND       PRES   REMARKS
ST CLOUD       SUNNY     66  37  34 N13G22    30.04S
SAUK CENTRE    FAIR      64  37  36 N14G20    30.08S
PAYNESVILLE    SUNNY     62  38  40 NW13G24   30.07S
AITKIN         SUNNY     66  30  26 N13G20    30.03S
PINE RIVER     SUNNY     61  36  39 N8G17     30.10S
BRAINERD       SUNNY     64  30  27 NW17G25   30.07R
STAPLES        SUNNY     64  30  27 N12G17    30.08S
LONG PRAIRIE   FAIR      63  36  36 N9G21     30.08S
LITTLE FALLS   SUNNY     64  32  29 NW7G18    30.06R
LITCHFIELD     SUNNY     66  37  34 N14G21    30.07R
BUFFALO        SUNNY     66  31  27 W10       30.05R
MAPLE LAKE     SUNNY     67  38  34 NW10G17   30.05S
$$
MNZ037-044-045-052-053-211800-
   East Central Minnesota

CITY           SKY/WX    TMP DP  RH WIND       PRES   REMARKS
PRINCETON      SUNNY     70  39  32 NW9G20    30.02F
MORA           SUNNY     64  39  39 N14G21    30.03R
CAMBRIDGE      SUNNY     70  45  40 N7        29.99F
RUSH CITY      SUNNY     68  36  30 N7G18     30.00S
MOOSE LAKE     SUNNY     64  36  34 N8        30.00R
HINCKLEY       FAIR      66  39  37 N14G20    30.00R
CLOQUET        SUNNY     64  30  27 N7G21     30.02R
MCGREGOR       SUNNY     63  34  34 N14G22    30.04S
$$
MNZ071>073-080-081-089-090-097-098-211800-
   Southwest Minnesota

CITY           SKY/WX    TMP DP  RH WIND       PRES   REMARKS
MONTEVIDEO     SUNNY     66  34  30 N21G28    30.12S
GRANITE FALLS  SUNNY     66  31  27 NW22      30.13S
CANBY          SUNNY     66  38  34 NW15      30.15S
MARSHALL       SUNNY     66  36  32 N22G28    30.12S
REDWOOD FALLS  SUNNY     67  33  28 NW18G25   30.09S
OLIVIA         SUNNY     64  32  29 NW23      30.08S
PIPESTONE      SUNNY     66  30  26 NW20G25   30.15S
WINDOM         SUNNY     68  34  28 NW16G23   30.11S
WORTHINGTON    SUNNY     68  36  30 NW24G31   30.13S
JACKSON        SUNNY     68  32  26 NW17G26   30.12R
TRACY          SUNNY     69  37  31 NW16      30.13S
SLAYTON        SUNNY     65  35  31 NW17G25   30.14S
$$
MNZ065>067-074>077-082>085-091>093-211800-
   South Central Minnesota

CITY           SKY/WX    TMP DP  RH WIND       PRES   REMARKS
MANKATO        SUNNY     66  36  32 NW18G26   30.06S
NEW ULM        SUNNY     68  36  30 NW23G30   30.07S
ST JAMES       SUNNY     70  32  24 NW21G29   30.10S
FAIRMONT       SUNNY     70  30  23 NW21      30.09S
GLENCOE        SUNNY     67  36  32 NW14G21   30.05S
FARIBAULT      SUNNY     66  39  37 W15G21    30.05S
OWATONNA       SUNNY     66  37  34 NW16      30.05S
WASECA         SUNNY     66  37  34 W21       30.07S
ALBERT LEA     SUNNY     68  36  30 NW12G21   30.06F
$$
MNZ078>079-086>088-094>096-211800-
   Southeast Minnesota

CITY           SKY/WX    TMP DP  RH WIND       PRES   REMARKS
ROCHESTER      SUNNY     69  43  38 W17G24    30.05S
RED WING       SUNNY     68  37  32 W14       30.00S
STANTON        SUNNY     67  41  39 NW10G21   30.02S
DODGE CENTER   SUNNY     66  41  39 W18       30.04S
WINONA         MOSUNNY   70  37  30 SW6       30.01F
AUSTIN         SUNNY     66  43  42 W15       30.06S
PRESTON        MOSUNNY   65  40  40 W9        30.05F
$$
ABBREVIATIONS USED IN REMARKS
   TC - TEMPERATURES IN CELSIUS
  WCI - WIND CHILL INDEX
   HX - HEAT INDEX
  VSB - VISIBILITY
$$



USA.gov is the U.S. government's official web portal to all federal, state and local government web resources and services.